Punta Gorda, FL

6:04 AM EST on December 09, 2019 (GMT -0500)
Charlotte County

Weather History for KPGD - September, 2019

Change the Weather History Date:

Wednesday, September 18, 2019

  Actual Average Record
Temperature  
Mean Temperature 82 °F -  
Max Temperature 93 °F 87 °F 96 °F (2018)
Min Temperature 72 °F 71 °F 70 °F (2003)
Cooling Degree Days 16    
Growing Degree Days 32 (Base 50)    
Moisture  
Dew Point 74 °F    
Average Humidity 82    
Maximum Humidity 100    
Minimum Humidity 52    
Precipitation  
Precipitation 0.02 in - - ()
Sea Level Pressure  
Sea Level Pressure 29.96 in    
Wind  
Wind Speed 6 mph (NE)    
Max Wind Speed 18 mph    
Max Gust Speed 24 mph    
Visibility 10 miles    
Events Rain , Thunderstorm    
Averages and records for this station are not official NWS values.
T = Trace of Precipitation, MM = Missing Value Source: NWS Daily Summary

Daily Weather History Graph

Daily Weather History Graph

Search for Another Location

Airport or City:

Astronomy

Sep. 18, 2019 Rise Set
Actual Time 7:14 AM EDT 7:29 PM EDT
Civil Twilight 6:51 AM EDT 7:52 PM EDT
Nautical Twilight 6:24 AM EDT 8:19 PM EDT
Astronomical Twilight 5:56 AM EDT 8:46 PM EDT
Moon 10:24 PM EDT (9/18) 10:56 AM EDT (9/18)
Length of Visible Light 13h 01m
Length of Day
12h 14m
Waning Gibbous, 82% of the Moon is Illuminated
Sep 18
Waning Gibbous
Sep 21
Last Quarter
Sep 28
New
Oct 5
First Quarter
Oct 13
Full

Hourly Weather History & Observations

Time (EDT) Temp. Heat Index Dew Point Humidity Pressure Visibility Wind Dir Wind Speed Gust Speed Precip Events Conditions
12:53 AM 73.9 °F - 73.0 °F 97% 29.97 in 10.0 mi NE 4.6 mph - N/A   Clear
1:53 AM 73.9 °F - 73.0 °F 97% 29.96 in 10.0 mi NE 4.6 mph - N/A   Clear
2:53 AM 73.0 °F - 73.0 °F 100% 29.96 in 10.0 mi NE 5.8 mph - N/A   Clear
3:53 AM 72.0 °F - 71.1 °F 97% 29.95 in 10.0 mi NNE 4.6 mph - N/A   Clear
4:53 AM 73.0 °F - 72.0 °F 96% 29.95 in 10.0 mi NNE 3.5 mph - N/A   Clear
5:53 AM 72.0 °F - 72.0 °F 100% 29.96 in 10.0 mi Calm Calm - N/A   Clear
6:53 AM 72.0 °F - 72.0 °F 100% 29.97 in 10.0 mi Calm Calm - N/A   Clear
7:53 AM 73.0 °F - 73.0 °F 100% 29.98 in 8.0 mi North 3.5 mph - N/A   Clear
8:53 AM 79.0 °F - 77.0 °F 94% 29.99 in 10.0 mi NNE 6.9 mph - N/A   Partly Cloudy
9:53 AM 82.0 °F 89.4 °F 75.9 °F 82% 29.99 in 10.0 mi NE 9.2 mph - N/A   Clear
10:53 AM 86.0 °F 95.1 °F 75.0 °F 70% 29.99 in 10.0 mi ENE 5.8 mph - N/A   Scattered Clouds
11:53 AM 88.0 °F 95.6 °F 73.0 °F 61% 30.00 in 10.0 mi East 8.1 mph - N/A   Scattered Clouds
12:53 PM 89.1 °F 97.0 °F 73.0 °F 59% 29.99 in 10.0 mi NNE 9.2 mph - N/A   Partly Cloudy
1:53 PM 91.0 °F 98.2 °F 72.0 °F 53% 29.97 in 10.0 mi NE 8.1 mph - N/A   Partly Cloudy
2:53 PM 91.0 °F 97.6 °F 71.1 °F 52% 29.96 in 10.0 mi ENE 8.1 mph - N/A   Scattered Clouds
3:53 PM 91.9 °F 99.5 °F 72.0 °F 52% 29.93 in 10.0 mi North 10.4 mph - N/A   Mostly Cloudy
4:44 PM 87.1 °F 92.8 °F 71.1 °F 59% 29.93 in 10.0 mi East 18.4 mph 24.2 mph N/A Thunderstorm Thunderstorm
4:53 PM 84.9 °F 90.7 °F 72.0 °F 65% 29.94 in 10.0 mi East 16.1 mph - N/A Thunderstorm Thunderstorm
5:03 PM 82.9 °F 87.5 °F 71.1 °F 67% 29.94 in 10.0 mi ENE 17.3 mph 24.2 mph N/A Thunderstorm Scattered Clouds
5:21 PM 80.1 °F 85.4 °F 75.9 °F 87% 29.93 in 4.0 mi East 10.4 mph - 0.02 in Rain Rain
5:53 PM 81.0 °F 87.9 °F 77.0 °F 88% 29.93 in 10.0 mi NE 4.6 mph - 0.02 in   Clear
6:53 PM 82.9 °F 91.8 °F 77.0 °F 82% 29.94 in 10.0 mi NE 4.6 mph - N/A   Mostly Cloudy
7:53 PM 81.0 °F 87.9 °F 77.0 °F 88% 29.96 in 10.0 mi NE 8.1 mph - N/A   Mostly Cloudy
8:53 PM 80.1 °F 85.4 °F 75.9 °F 87% 29.97 in 10.0 mi ENE 4.6 mph - N/A   Scattered Clouds
9:53 PM 78.1 °F - 75.9 °F 93% 29.98 in 10.0 mi ENE 6.9 mph - N/A   Clear
10:53 PM 78.1 °F - 73.9 °F 87% 30.00 in 10.0 mi NE 5.8 mph - N/A   Clear
11:53 PM 75.9 °F - 73.9 °F 94% 30.01 in 10.0 mi ENE 4.6 mph - N/A   Clear